{"data":{"norad_id":58525,"epoch":"2026-05-25T01:30:34.644672Z","epoch_age_seconds":59775,"freshness":"FRESH","line1":"1 58525U 23191T   26145.06290098  .00001952  00000+0  80416-4 0  9992","line2":"2 58525  43.0006  31.9462 0000891 282.7517  77.3235 15.27586642137155","mean_motion":15.27586642,"eccentricity":8.91e-5,"inclination_deg":43.0006,"raan_deg":31.9462,"arg_perigee_deg":282.7517,"mean_anomaly_deg":77.3235,"bstar":8.0416e-5,"rev_number":13715,"period_min":94.26633883854,"perigee_km":482.41787766517,"apogee_km":483.64053748336,"semimajor_km":6861.1662075743,"source":"CELESTRAK","updated_at":"2026-05-25T13:38:18.658574Z"}}